| time (UTC) | temp F | wind direction | speed MPH | gust MPH | rain 1hr in | rain 24hr in | rain mn in | humidity % | barometer mb |
| 20260504005537 | 55 | 151 | 2.0 | 4.0 | 0.00 | 0.01 | 0.01 | 66 | 1005.9 |
| 20260504004518 | 55 | 169 | 2.0 | 3.0 | 0.00 | 0.01 | 0.01 | 64 | 1006.0 |
| 20260504003518 | 56 | 168 | 3.0 | 6.0 | 0.00 | 0.01 | 0.01 | 63 | 1006.0 |
| 20260504002517 | 56 | 178 | 4.0 | 7.0 | 0.00 | 0.01 | 0.01 | 62 | 1006.0 |
| 20260504001518 | 56 | 175 | 2.0 | 3.0 | 0.00 | 0.01 | 0.01 | 62 | 1006.0 |
| 20260504000515 | 56 | 203 | 1.0 | 3.0 | 0.00 | 0.01 | 0.01 | 62 | 1006.2 |
| 20260503235535 | 56 | 165 | 3.0 | 4.0 | 0.00 | 0.01 | 0.01 | 62 | 1006.4 |
| 20260503234518 | 56 | 219 | 1.0 | 3.0 | 0.00 | 0.01 | 0.01 | 61 | 1006.3 |
| 20260503233516 | 57 | 216 | 2.0 | 5.0 | 0.00 | 0.01 | 0.01 | 62 | 1006.4 |
| 20260503232515 | 57 | 226 | 6.0 | 9.0 | 0.00 | 0.01 | 0.01 | 60 | 1006.5 |
| 20260503231516 | 57 | 177 | 4.0 | 7.0 | 0.00 | 0.01 | 0.01 | 60 | 1006.7 |
| 20260503230516 | 57 | 205 | 4.0 | 5.0 | 0.00 | 0.01 | 0.01 | 60 | 1006.9 |
| 20260503225516 | 57 | 255 | 4.0 | 11.0 | 0.00 | 0.01 | 0.01 | 58 | 1007.0 |
| 20260503224516 | 57 | 97 | 2.0 | 3.0 | 0.00 | 0.01 | 0.01 | 59 | 1007.1 |
| 20260503223517 | 57 | 172 | 4.0 | 6.0 | 0.00 | 0.01 | 0.01 | 58 | 1007.4 |
| 20260503222517 | 56 | 210 | 4.0 | 6.0 | 0.00 | 0.01 | 0.01 | 60 | 1007.7 |
| 20260503221517 | 56 | 184 | 3.0 | 7.0 | 0.00 | 0.01 | 0.01 | 58 | 1007.7 |
| 20260503220557 | 56 | 210 | 5.0 | 7.0 | 0.00 | 0.01 | 0.01 | 61 | 1008.0 |
| 20260503215517 | 56 | 211 | 3.0 | 7.0 | 0.00 | 0.01 | 0.01 | 60 | 1008.2 |
| 20260503214517 | 56 | 226 | 3.0 | 5.0 | 0.00 | 0.01 | 0.01 | 62 | 1008.2 |
| 20260503213517 | 55 | 169 | 3.0 | 6.0 | 0.00 | 0.01 | 0.01 | 64 | 1008.2 |
| 20260503212517 | 54 | 175 | 3.0 | 5.0 | 0.00 | 0.01 | 0.01 | 67 | 1008.3 |
| 20260503211537 | 53 | 181 | 2.0 | 4.0 | 0.00 | 0.01 | 0.01 | 66 | 1008.5 |
| 20260503210518 | 53 | 246 | 5.0 | 9.0 | 0.00 | 0.01 | 0.01 | 69 | 1008.6 |
| 20260503205518 | 53 | 182 | 4.0 | 6.0 | 0.00 | 0.01 | 0.01 | 68 | 1008.6 |
| 20260503204515 | 52 | 190 | 1.0 | 4.0 | 0.00 | 0.01 | 0.01 | 68 | 1008.7 |
| 20260503203515 | 52 | 167 | 2.0 | 4.0 | 0.00 | 0.01 | 0.01 | 70 | 1008.8 |
| 20260503202515 | 52 | 213 | 3.0 | 4.0 | 0.01 | 0.01 | 0.01 | 71 | 1009.1 |
| 20260503201515 | 51 | 181 | 3.0 | 4.0 | 0.01 | 0.01 | 0.01 | 74 | 1009.4 |
| 20260503200556 | 51 | 212 | 3.0 | 4.0 | 0.01 | 0.01 | 0.01 | 75 | 1009.7 |
| 20260503195636 | 50 | 192 | 5.0 | 10.0 | 0.01 | 0.01 | 0.01 | 76 | 1009.8 |
| 20260503194516 | 51 | 222 | 4.0 | 9.0 | 0.01 | 0.01 | 0.01 | 77 | 1010.2 |
| 20260503193517 | 52 | 273 | 5.0 | 9.0 | 0.00 | 0.00 | 0.00 | 72 | 1010.4 |
| 20260503192517 | 54 | 230 | 6.0 | 9.0 | 0.00 | 0.00 | 0.00 | 65 | 1010.2 |
| 20260503191517 | 55 | 187 | 5.0 | 8.0 | 0.00 | 0.00 | 0.00 | 63 | 1010.2 |
| 20260503190516 | 56 | 209 | 7.0 | 13.0 | 0.00 | 0.00 | 0.00 | 60 | 1010.2 |
| 20260503185537 | 57 | 232 | 6.0 | 9.0 | 0.00 | 0.00 | 0.00 | 58 | 1010.2 |
| 20260503184517 | 57 | 217 | 6.0 | 9.0 | 0.00 | 0.00 | 0.00 | 57 | 1010.2 |
| 20260503183517 | 58 | 275 | 6.0 | 9.0 | 0.00 | 0.00 | 0.00 | 55 | 1010.1 |
| 20260503182517 | 57 | 229 | 8.0 | 10.0 | 0.00 | 0.00 | 0.00 | 54 | 1010.2 |
| 20260503181518 | 58 | 226 | 5.0 | 9.0 | 0.00 | 0.00 | 0.00 | 53 | 1010.2 |
| 20260503180517 | 58 | 204 | 6.0 | 15.0 | 0.00 | 0.00 | 0.00 | 53 | 1010.3 |
| 20260503175518 | 58 | 226 | 6.0 | 10.0 | 0.00 | 0.00 | 0.00 | 53 | 1010.2 |
| 20260503174518 | 57 | 291 | 6.0 | 12.0 | 0.00 | 0.00 | 0.00 | 53 | 1010.5 |
| 20260503173518 | 57 | 236 | 8.0 | 14.0 | 0.00 | 0.00 | 0.00 | 54 | 1010.6 |
| 20260503172515 | 57 | 269 | 8.0 | 13.0 | 0.00 | 0.00 | 0.00 | 53 | 1010.7 |
| 20260503171536 | 57 | 233 | 5.0 | 8.0 | 0.00 | 0.00 | 0.00 | 56 | 1010.8 |
| 20260503170535 | 57 | 241 | 3.0 | 4.0 | 0.00 | 0.00 | 0.00 | 56 | 1011.0 |
| 20260503150516 | 53 | 295 | 5.0 | 8.0 | 0.00 | 0.00 | 0.00 | 56 | 1011.6 |
| 20260503130537 | 51 | 220 | 6.0 | 10.0 | 0.00 | 0.00 | 0.00 | 58 | 1012.4 |
| 20260503110519 | 44 | 0.0 | 0.0 | 0.00 | 0.00 | 0.00 | 69 | 1012.3 | |
| 20260503081517 | 41 | 191 | 2.0 | 3.0 | 0.00 | 0.00 | 0.00 | 70 | 1012.9 |
| 20260503080538 | 41 | 204 | 2.0 | 3.0 | 0.00 | 0.00 | 0.00 | 68 | 1012.9 |
| 20260503072518 | 41 | 175 | 2.0 | 3.0 | 0.00 | 0.00 | 0.00 | 63 | 1013.1 |
| 20260503071518 | 41 | 195 | 2.0 | 3.0 | 0.00 | 0.00 | 0.00 | 62 | 1013.2 |
| 20260503070518 | 42 | 202 | 0.0 | 1.0 | 0.00 | 0.00 | 0.00 | 61 | 1013.2 |
| 20260503054516 | 41 | 193 | 0.0 | 1.0 | 0.00 | 0.00 | 0.00 | 58 | 1014.2 |
| 20260503053536 | 41 | 0.0 | 0.0 | 0.00 | 0.00 | 0.00 | 59 | 1014.3 | |
| 20260503052516 | 40 | 155 | 1.0 | 2.0 | 0.00 | 0.00 | 0.00 | 63 | 1014.4 |
| 20260503051516 | 40 | 158 | 0.0 | 1.0 | 0.00 | 0.00 | 0.00 | 65 | 1014.5 |
| 20260503050517 | 41 | 0.0 | 0.0 | 0.00 | 0.00 | 0.00 | 59 | 1014.7 | |
| 20260503045517 | 41 | 202 | 0.0 | 1.0 | 0.00 | 0.00 | 0.00 | 60 | 1014.8 |
| 20260503044517 | 41 | 180 | 0.0 | 1.0 | 0.00 | 0.00 | 0.00 | 59 | 1014.8 |
| 20260503043537 | 42 | 185 | 0.0 | 2.0 | 0.00 | 0.00 | 0.00 | 58 | 1014.9 |
| 20260503042517 | 42 | 0.0 | 0.0 | 0.00 | 0.00 | 0.00 | 60 | 1014.9 | |
| 20260503041517 | 42 | 0.0 | 0.0 | 0.00 | 0.00 | 0.00 | 60 | 1015.1 | |
| 20260503040517 | 42 | 181 | 0.0 | 0.0 | 0.00 | 0.00 | 0.00 | 59 | 1015.2 |
| 20260503035518 | 42 | 193 | 0.0 | 1.0 | 0.00 | 0.00 | 0.00 | 60 | 1015.3 |
| 20260503034516 | 42 | 213 | 2.0 | 4.0 | 0.00 | 0.00 | 0.00 | 61 | 1015.4 |
| 20260503033515 | 42 | 190 | 1.0 | 2.0 | 0.00 | 0.00 | 0.00 | 61 | 1015.5 |
| 20260503032515 | 42 | 199 | 1.0 | 2.0 | 0.00 | 0.00 | 0.00 | 63 | 1015.6 |
| 20260503031536 | 42 | 200 | 0.0 | 1.0 | 0.00 | 0.00 | 0.00 | 62 | 1015.6 |
| 20260503030516 | 42 | 204 | 1.0 | 2.0 | 0.00 | 0.00 | 0.00 | 61 | 1015.7 |
| 20260503025516 | 42 | 241 | 0.0 | 2.0 | 0.00 | 0.00 | 0.00 | 61 | 1015.7 |
| 20260503024536 | 42 | 212 | 0.0 | 2.0 | 0.00 | 0.00 | 0.00 | 60 | 1015.8 |
| 20260503023516 | 42 | 175 | 0.0 | 0.0 | 0.00 | 0.00 | 0.00 | 61 | 1015.8 |
| 20260503022516 | 42 | 206 | 0.0 | 2.0 | 0.00 | 0.00 | 0.00 | 62 | 1015.9 |
| 20260503021516 | 42 | 210 | 0.0 | 2.0 | 0.00 | 0.00 | 0.00 | 62 | 1016.0 |
| 20260503020517 | 42 | 202 | 0.0 | 2.0 | 0.00 | 0.00 | 0.00 | 63 | 1016.0 |
| 20260503015516 | 42 | 0.0 | 0.0 | 0.00 | 0.00 | 0.00 | 59 | 1016.0 | |
| 20260503014517 | 43 | 201 | 1.0 | 2.0 | 0.00 | 0.00 | 0.00 | 58 | 1016.0 |
| 20260503013517 | 43 | 192 | 1.0 | 2.0 | 0.00 | 0.00 | 0.00 | 59 | 1015.9 |
| 20260503012537 | 44 | 0.0 | 0.0 | 0.00 | 0.00 | 0.00 | 58 | 1016.0 | |
| 20260503011517 | 44 | 254 | 0.0 | 1.0 | 0.00 | 0.00 | 0.00 | 57 | 1016.0 |
| 20260503010518 | 44 | 262 | 2.0 | 4.0 | 0.00 | 0.00 | 0.00 | 57 | 1016.0 |